User: anonymous   Login
Location: Hawks Ness
(60.2333°N, 1.1667°W)
Time: 03:02:48
(UTC+00:00)
Language:

Cosmos 192 - Orbit

View from above orbital plane
View from above orbital plane
View from above satellite
View from above satellite

Ground track
Ground track

The orbit data is extracted from the following two-line orbital elements,

1  3047U 67116A   19343.36573447  .00000024  00000-0  12114-4 0  9993
2  3047  74.0118 220.0167 0009581 253.6179 106.3931 14.55621661752364
Epoch (UTC): 09 December 2019 08:46:39
Eccentricity: 0.0009581
inclination: 74.0118°
perigee height: 700 km
apogee height: 714 km
right ascension of ascending node: 220.0167°
argument of perigee: 253.6179°
revolutions per day: 14.55621661
mean anomaly at epoch: 106.3931°
orbit number at epoch: 75236

The dashed part of the orbit path shows where the satellite is in the earth's shadow,  

DLR